Hourly Data Report for September 17, 2017

All times are specified in Local Standard Time (LST). Add 1 hour to adjust for Daylight Saving Time where and when it is observed.

RESOLUTE BAY A
NUNAVUT

74°43'01.000" N
94°58'10.000" W
67.70 m
2403498
71924
YRB

Download Data

Hourly Data (September 2017)
Hourly Data Report for September 17, 2017
Temp Definition
°C
Dew Point Temp Definition
°C
Rel Hum Definition
%
Wind Dir Definition
10's deg

Wind Spd Definition
km/h
Visibility Definition
km
Stn Press Definition
kPa
Hmdx Definition


Wind Chill Definition


Weather Definition


TIME
00:00 Legend Double Dagger -5.3 -7.1 88 18 6 24.1 100.62   -8 Cloudy
01:00 Legend Double Dagger -5.1 -6.7 89 24 9 24.1 100.59   -9 LegendNANA
02:00 Legend Double Dagger -5.2 -7.0 87 14 4 24.1 100.55   -7 LegendNANA
03:00 Legend Double Dagger -4.8 -6.5 88 12 8 24.1 100.52   -8 Snow
04:00 Legend Double Dagger -5.1 -6.5 90 11 12 14.5 100.47   -10 Snow
05:00 Legend Double Dagger -4.6 -5.6 92 13 13 3.2 100.42   -10 Snow
06:00 Legend Double Dagger -4.5 -5.6 92 12 17 12.9 100.36   -10 Snow
07:00 Legend Double Dagger -4.6 -5.9 90 11 21 12.9 100.26   -11 Snow
08:00 Legend Double Dagger -4.1 -5.3 92 13 26 16.1 100.17   -11 Snow
09:00 Legend Double Dagger -3.8 -5.3 89 13 34 16.1 100.13   -12 Snow
10:00 Legend Double Dagger -3.7 -5.4 88 13 32 16.1 100.07   -12 Snow
11:00 Legend Double Dagger -3.7 -5.5 87 13 34 24.1 100.03   -12 Snow
12:00 Legend Double Dagger -3.6 -5.1 89 13 34 24.1 100.00   -12 Snow
13:00 Legend Double Dagger -3.4 -4.8 90 12 29 24.1 99.97   -11 Snow
14:00 Legend Double Dagger -3.3 -4.8 90 11 31 19.3 99.95   -11 Snow
15:00 Legend Double Dagger -3.4 -4.9 89 10 33 24.1 99.95   -11 Snow
16:00 Legend Double Dagger -3.3 -4.7 90 9 29 16.1 99.96   -11 LegendNANA
17:00 Legend Double Dagger -3.0 -4.3 91 10 26 24.1 99.95   -10 LegendNANA
18:00 Legend Double Dagger -2.8 -4.1 91 10 29 19.3 99.97   -10 Cloudy
19:00 Legend Double Dagger -3.0 -4.5 90 9 27 24.1 100.00   -10 LegendNANA
20:00 Legend Double Dagger -3.1 -4.5 90 10 21 24.1 100.04   -9 LegendNANA
21:00 Legend Double Dagger -4.7 -6.4 88 6 19 24.1 100.10   -11 Mostly Cloudy
22:00 Legend Double Dagger -4.9 -6.8 87 4 17 24.1 100.14   -11 LegendNANA
23:00 Legend Double Dagger -6.7 -8.6 86 4 34 24.1 100.14   -16 LegendNANA

Notes on Data Quality.

Legend

  • E = Estimated
  • M = Missing
  • NA = Not Available
  • ‡ = Partner data that is not subject to review by the National Climate Archives
Date modified: